Hourly Data Report for September 02, 2017

All times are specified in Local Standard Time (LST). Add 1 hour to adjust for Daylight Saving Time where and when it is observed.

ARCTIC BAY CS
NUNAVUT

72°59'34.000" N
85°00'44.000" W
10.00 m
2400404
71592
XAT

Download Data

Hourly Data (September 2017)
Hourly Data Report for September 2, 2017
Temp Definition
°C
Dew Point Temp Definition
°C
Rel Hum Definition
%
Wind Dir Definition
10's deg

Wind Spd Definition
km/h
Visibility Definition
km
Stn Press Definition
kPa
Hmdx Definition


Wind Chill Definition


Weather Definition


TIME
00:00 1.1 -1.9 80 35 11   100.81     LegendNANA
01:00 1.4 -1.6 80 25 4   100.85     LegendNANA
02:00 1.5 -1.4 81 34 13   100.84     LegendNANA
03:00 1.7 -1.4 80 31 8   100.90     LegendNANA
04:00 1.6 -1.0 83 33 7   100.91     LegendNANA
05:00 1.4 -1.0 84 33 8   100.92     LegendNANA
06:00 1.4 -1.4 81 35 11   100.95     LegendNANA
07:00 1.3 -2.5 76 2 7   100.96     LegendNANA
08:00 1.5 -2.6 74 36 14   100.97     LegendNANA
09:00 2.1 -2.6 71 34 11   100.99     LegendNANA
10:00 2.1 -3.0 69 34 9   101.00     LegendNANA
11:00 3.1 -2.7 66 34 4   101.02     LegendNANA
12:00 2.6 -2.2 70 29 8   101.03     LegendNANA
13:00 3.0 -1.3 73 26 11   100.99     LegendNANA
14:00 2.9 -2.0 70 29 9   101.01     LegendNANA
15:00 3.3 -1.8 69 29 13   101.02     LegendNANA
16:00 3.2 -1.2 73 28 14   101.04     LegendNANA
17:00 2.9 -1.6 73 32 18   101.05     LegendNANA
18:00 2.6 -1.3 76 32 16   101.06     LegendNANA
19:00 2.4 -0.8 79 32 13   101.05     LegendNANA
20:00 2.1 -1.0 80 32 12   101.06     LegendNANA
21:00 1.4 -1.0 84 32 12   101.06     LegendNANA
22:00
23:00 0.6 -2.3 81 10 8   101.04     LegendNANA

Notes on Data Quality.

Legend

  • E = Estimated
  • M = Missing
  • NA = Not Available
  • ‡ = Partner data that is not subject to review by the National Climate Archives
Date modified: